Retour au catalogue

STARLINK-35216

ActifCommunicationsVLEO
NORAD 65516·PAYLOAD·🇺🇸 United States

Lancé Sep 5, 2025 depuis Cape Canaveral Space Force Station

Loading…

Prochains Passages (prochaines 24 heures)

TLE

FraisSource: CelesTrak SupGP

Époque: Sep 14, 2026, 20:59 UTC

1 65516C 25198AA  26257.87479167 -.00041177  00000+0 -12169-2 0  2578
2 65516  53.1576 109.9355 0001280  88.3582  60.9150 15.34403677    11

Suivez STARLINK-35216 en temps réel avec AllMySat

Download on the App Store